This is the latest recevied weather packets stored in our database for station/object EA2MKR. If no packets are shown the sender has not sent any weather packets the latest 10 day(s).
| Time | Temp. | Humidity | Pressure | Rain* | Wind** | Luminosity | Snow |
|---|---|---|---|---|---|---|---|
| 1788004001 | 25.56° C | 40% | 956.6 hPa | 0 mm | - | - | - |
| 1788003701 | 25.56° C | 40% | 956.7 hPa | 0 mm | - | - | - |
| 1788003401 | 25.56° C | 40% | 956.8 hPa | 0 mm | - | - | - |
| 1788003101 | 25.56° C | 40% | 956.9 hPa | 0 mm | - | - | - |
| 1788002801 | 25.56° C | 42% | 956.8 hPa | 0 mm | - | - | - |
| 1788002625 | 25° C | 43% | 956.9 hPa | 0 mm | - | - | - |
| 1788002200 | 25° C | 43% | 956.9 hPa | 0 mm | - | - | - |
| 1788001900 | 24.44° C | 42% | 956.9 hPa | 0 mm | - | - | - |
| 1788001601 | 24.44° C | 43% | 956.9 hPa | 0 mm | - | - | - |
| 1788001300 | 24.44° C | 45% | 957 hPa | 0 mm | - | - | - |
| 1788001000 | 24.44° C | 43% | 957.1 hPa | 0 mm | - | - | - |
| 1788000825 | 24.44° C | 46% | 957.1 hPa | 0 mm | - | - | - |
| 1788000400 | 23.89° C | 45% | 957.2 hPa | 0 mm | - | - | - |
| 1788000100 | 23.89° C | 46% | 957.2 hPa | 0 mm | - | - | - |
| 1787999799 | 23.89° C | 47% | 957.3 hPa | 0 mm | - | - | - |
| 1787999625 | 23.89° C | 47% | 957.2 hPa | 0 mm | - | - | - |
| 1787999199 | 23.33° C | 49% | 957.4 hPa | 0 mm | - | - | - |
| 1787998900 | 23.33° C | 48% | 957.5 hPa | 0 mm | - | - | - |
| 1787998599 | 23.33° C | 49% | 957.4 hPa | 0 mm | - | - | - |
| 1787998299 | 23.33° C | 48% | 957.4 hPa | 0 mm | - | - | - |
| 1787997999 | 23.33° C | 49% | 957.5 hPa | 0 mm | - | - | - |
| 1787997699 | 22.78° C | 51% | 957.6 hPa | 0 mm | - | - | - |
| 1787997399 | 22.78° C | 50% | 957.6 hPa | 0 mm | - | - | - |
| 1787997099 | 22.78° C | 51% | 957.5 hPa | 0 mm | - | - | - |
| 1787996799 | 22.22° C | 51% | 957.5 hPa | 0 mm | - | - | - |
* Rain latest hour (hover to see other rain measurements)
** Current wind speed in m/s (hover to see current wind gust speed)